User: anonymous   Login
Location: Twentynine Palms Airport
(34.1316°N, 115.9458°W)
Time: 16:16:08
(UTC-07:00)
Language:

Oscar 19 - Orbit

View from above orbital plane
View from above orbital plane
View from above satellite
View from above satellite

Ground track
Ground track

The orbit data is extracted from the following two-line orbital elements,

1 20442U 90005G   15186.78004202  .00000101  00000-0  52746-4 0  9990
2 20442 098.5117 122.2036 0013018 093.0034 267.2640 14.32745579329607
Epoch (UTC): 05 July 2015 18:43:15
Eccentricity: 0.0013018
inclination: 98.5117°
perigee height: 773 km
apogee height: 792 km
right ascension of ascending node: 122.2036°
argument of perigee: 93.0034°
revolutions per day: 14.32745579
mean anomaly at epoch: 267.2640°
orbit number at epoch: 32960

The dashed part of the orbit path shows where the satellite is in the earth's shadow,  

DLR